Tracking 18851 objects as of 24-Nov-2017
HD Live streaming from Space Station
objects crossing your sky now

COSMOS 2263

Track COSMOS 2263 now!
10-day predictions
COSMOS 2263 is classified as:


NORAD ID: 22802
Int'l Code: 1993-059A
Perigee: 838.4 km
Apogee: 873.0 km
Inclination: 70.9 °
Period: 101.9 minutes
Semi major axis: 7226 km
RCS: 7.1326 m2 (large)
Launch date: September 16, 1993
Source: Commonwealth of Independent States (former USSR) (CIS)
Launch site: TYURATAM MISSILE AND SPACE COMPLEX (TTMTR)
aabbcc
Your satellite tracking list
Your tracking list is empty




NASA's NSSDC Master Catalog

Two Line Element Set (TLE):
1 22802U 93059A   17328.47128378 -.00000360  00000-0 -16636-3 0  9997
2 22802  70.9251 344.5766 0023917 344.1697  15.8674 14.13155716247773
Source of the keplerian elements: AFSPC